Weather Roundup
Issued by NWS Springfield, MO

Home | Current Version | Previous Version | Text Only | Print | Product List | Glossary On
Versions: 1 2 3 4 5 6 7 8 9 10 11 12 13 14 15 16 17 18 19 20 21 22 23 24 25 26 27 28 29 30 31 32 33 34 35 36 37 38 39 40 41 42 43 44 45 46 47 48 49 50
000
NZUS99 KSGF 241807
HRRSGF

HOURLY WEATHER
NATIONAL WEATHER SERVICE SPRINGFIELD MO
100 PM CDT MON APR 24 2017

......SGF CWA......

CITY           SKY/WX    TMP DP  RH WIND       PRES   REMARKS
SPRINGFIELD    SUNNY     70  35  27 S15       29.86F
6HR MIN TEMP:  40; 6HR MAX TEMP:  71;

JOPLIN         SUNNY     72  40  31 S18G24    29.82F
6HR MIN TEMP:  39; 6HR MAX TEMP:  72;

WEST PLAINS    SUNNY     71  34  25 SW5       29.91F
6HR MIN TEMP:  42; 6HR MAX TEMP:  72;

ROLLA          SUNNY     71  39  31 VRB7      29.87F
6HR MIN TEMP:  42; 6HR MAX TEMP:  71;

OSAGE BEACH    SUNNY     72  30  21 SE10G16   29.87F
BRANSON        SUNNY     70  34  26 SE10      29.91F

......SURROUNDING SGF CWA......

CITY           SKY/WX    TMP DP  RH WIND       PRES   REMARKS
CHANUTE        SUNNY     70  43  37 S24G33    29.77F
PARSONS        SUNNY     70  44  39 S15G25    29.80F
COFFEYVILLE    SUNNY     70  43  37 S20G28    29.81F
EMPORIA        SUNNY     69  42  37 S25G35    29.71F
GROVE OK       SUNNY     72  41  33 S14G22    29.85F
ROGERS AR      SUNNY     71  36  27 S15       29.87F
SILOAM SPRINGS SUNNY     70  37  30 S14G20    29.86F
HARRISON AR    SUNNY     70  35  27 SE9       29.90F
NEAR YELLVILLE SUNNY    N/A N/A N/A SE3       29.87F

......KANSAS AND MISSOURI......

CITY           SKY/WX    TMP DP  RH WIND       PRES   REMARKS
KANSAS CTY INT PTSUNNY   72  36  26 S23G33    29.75F
DOWNTOWN KC    MOSUNNY   74  36  25 S23G31    29.76F
COLUMBIA       SUNNY     73  37  27 S12       29.86F
SEDALIA        SUNNY     74  35  24 S20G25    29.84F
ST JOSEPH      MOSUNNY   72  35  25 S29G35    29.72F
ST LOUIS       MOSUNNY   73  30  20 SE7       29.90F
SPIRIT OF STL  MOSUNNY   73  35  25 E9        29.88F
KIRKSVILLE     SUNNY     73  32  22 SE21G30   29.82F
WICHITA        MOSUNNY   71  46  40 S30G40    29.66F
TOPEKA         SUNNY     71  40  32 S23G32    29.73F
OLATHE         SUNNY     69  40  34 S25G32    29.76F

......TENNESSEE......

CITY           SKY/WX    TMP DP  RH WIND       PRES   REMARKS
MEMPHIS        MOSUNNY   70  51  51 N6        29.89F
NASHVILLE      CLOUDY    65  54  67 NW3       29.84F

......ARKANSAS.......

CITY           SKY/WX    TMP DP  RH WIND       PRES   REMARKS
FAYETTEVILLE   SUNNY     71  35  26 S12       29.88F
FT SMITH       SUNNY     74  36  25 S8        29.88F
LITTLE ROCK    MOSUNNY   73  37  27 VRB3      29.91F

......OKLAHOMA.......

CITY           SKY/WX    TMP DP  RH WIND       PRES   REMARKS
TULSA          MOSUNNY   72  43  35 S18       29.80F
PONCA CITY     SUNNY     71  44  37 S20G32    29.72F
MCALESTER      SUNNY     73  42  32 S10G21    29.87F
OKLAHOMA CITY  MOSUNNY   71  46  40 S23G30    29.78F

......IOWA............

CITY           SKY/WX    TMP DP  RH WIND       PRES   REMARKS
DES MOINES     CLOUDY    73  30  20 S25G37    29.76F
QUAD CITIES    SUNNY     73  34  23 SE12      29.87F

......ILLINOIS........

CITY           SKY/WX    TMP DP  RH WIND       PRES   REMARKS
QUINCY         SUNNY     72  27  18 SE12      29.87F
CHICAGO        PTSUNNY   70  26  19 SE10      29.94F




USA.gov is the U.S. government's official web portal to all federal, state and local government web resources and services.